TimeEDT,TemperatureF,Dew PointF,Humidity,Sea Level PressureIn,VisibilityMPH,Wind Direction,Wind SpeedMPH,Gust SpeedMPH,PrecipitationIn,Events,Conditions,WindDirDegrees,DateUTC
12:54 AM,70.0,70.0,100,29.95,9.0,SW,5.8,-,0.01,,Mostly Cloudy,220,2013-08-28 04:54:00
1:54 AM,70.0,70.0,100,29.93,4.0,South,4.6,-,0.00,,Overcast,190,2013-08-28 05:54:00
2:40 AM,69.8,69.8,100,29.95,5.0,SW,3.5,-,0.00,Rain,Light Rain,220,2013-08-28 06:40:00
2:54 AM,70.0,70.0,100,29.91,6.0,SW,3.5,-,0.00,Rain,Light Rain,230,2013-08-28 06:54:00
3:03 AM,69.8,69.8,100,29.95,5.0,Calm,Calm,-,0.00,Rain,Light Rain,0,2013-08-28 07:03:00
3:49 AM,69.8,69.8,100,29.93,2.0,Calm,Calm,-,0.03,Rain,Rain,0,2013-08-28 07:49:00
3:50 AM,70.0,70.0,100,29.90,2.0,Calm,Calm,-,0.03,Rain,Rain,0,2013-08-28 07:50:00
3:58 AM,69.8,69.8,100,29.93,1.2,South,4.6,-,0.01,Rain,Rain,190,2013-08-28 07:58:00
4:07 AM,69.8,69.8,100,29.93,0.5,South,5.8,-,0.02,Fog-Rain,Light Rain,190,2013-08-28 08:07:00
4:22 AM,69.8,69.8,100,29.93,0.8,South,5.8,-,0.02,Rain,Light Rain,190,2013-08-28 08:22:00
4:32 AM,69.8,69.8,100,29.93,1.2,SSW,5.8,-,0.02,,Overcast,210,2013-08-28 08:32:00
4:35 AM,69.8,69.8,100,29.93,2.0,SSW,5.8,-,0.02,,Overcast,210,2013-08-28 08:35:00
4:54 AM,70.0,70.0,100,29.89,1.8,SSW,4.6,-,0.02,,Overcast,210,2013-08-28 08:54:00
5:04 AM,69.8,69.8,100,29.93,2.0,SW,4.6,-,N/A,,Overcast,220,2013-08-28 09:04:00
5:16 AM,69.8,69.8,100,29.93,2.0,SW,3.5,-,N/A,,Overcast,220,2013-08-28 09:16:00
5:54 AM,70.0,70.0,100,29.90,2.0,Calm,Calm,-,N/A,,Overcast,0,2013-08-28 09:54:00
6:01 AM,69.8,69.8,100,29.93,2.0,Calm,Calm,-,N/A,,Overcast,0,2013-08-28 10:01:00
6:09 AM,69.8,69.8,100,29.93,1.8,Calm,Calm,-,N/A,,Overcast,0,2013-08-28 10:09:00
6:19 AM,69.8,69.8,100,29.93,2.0,Calm,Calm,-,N/A,,Overcast,0,2013-08-28 10:19:00
6:34 AM,69.8,69.8,100,29.93,1.8,Calm,Calm,-,0.00,Rain,Light Rain,0,2013-08-28 10:34:00
6:42 AM,69.8,69.8,100,29.93,1.5,Calm,Calm,-,0.00,,Overcast,0,2013-08-28 10:42:00
6:54 AM,70.0,70.0,100,29.90,0.5,Calm,Calm,-,0.00,Fog,Fog,0,2013-08-28 10:54:00
7:10 AM,69.8,69.8,100,29.94,0.2,Calm,Calm,-,N/A,Fog,Fog,0,2013-08-28 11:10:00
7:38 AM,69.8,69.8,100,29.94,0.8,South,3.5,-,0.00,,Overcast,190,2013-08-28 11:38:00
7:54 AM,70.0,70.0,100,29.92,0.8,SW,8.1,-,0.00,,Overcast,230,2013-08-28 11:54:00
8:02 AM,69.8,69.8,100,29.94,1.5,SW,6.9,-,N/A,,Overcast,220,2013-08-28 12:02:00
8:07 AM,69.8,69.8,100,29.94,2.5,SSW,6.9,-,N/A,,Overcast,210,2013-08-28 12:07:00
8:16 AM,69.8,69.8,100,29.94,4.0,SW,6.9,-,N/A,,Overcast,230,2013-08-28 12:16:00
8:52 AM,69.8,69.8,100,29.93,5.0,SSW,6.9,-,N/A,,Overcast,210,2013-08-28 12:52:00
8:54 AM,70.0,70.0,100,29.90,5.0,SSW,5.8,-,N/A,,Overcast,200,2013-08-28 12:54:00
9:16 AM,69.8,69.8,100,29.93,3.0,SSW,5.8,-,0.01,Rain,Light Rain,210,2013-08-28 13:16:00
9:29 AM,69.8,69.8,100,29.92,4.0,South,4.6,-,0.01,Rain,Light Rain,190,2013-08-28 13:29:00
9:36 AM,69.8,69.8,100,29.92,4.0,South,4.6,-,0.01,Rain,Light Rain,190,2013-08-28 13:36:00
9:54 AM,70.0,70.0,100,29.89,5.0,SSW,5.8,-,0.01,Rain,Light Rain,210,2013-08-28 13:54:00
10:54 AM,71.1,71.1,100,29.88,5.0,South,4.6,-,0.01,Rain,Light Rain,190,2013-08-28 14:54:00
11:54 AM,73.9,70.0,87,29.88,10.0,SSW,4.6,-,0.00,,Overcast,200,2013-08-28 15:54:00
12:27 PM,75.2,71.6,89,29.90,10.0,Variable,4.6,-,N/A,,Mostly Cloudy,0,2013-08-28 16:27:00
12:40 PM,75.2,69.8,83,29.90,10.0,SSW,4.6,-,N/A,,Scattered Clouds,200,2013-08-28 16:40:00
12:54 PM,75.9,70.0,82,29.87,10.0,WSW,5.8,-,N/A,,Scattered Clouds,240,2013-08-28 16:54:00
1:24 PM,77.0,69.8,78,29.89,10.0,SSW,9.2,-,N/A,,Overcast,200,2013-08-28 17:24:00
1:43 PM,75.2,69.8,83,29.90,10.0,SW,6.9,-,N/A,,Overcast,220,2013-08-28 17:43:00
1:54 PM,75.0,69.1,82,29.87,10.0,SW,8.1,-,N/A,,Overcast,220,2013-08-28 17:54:00
2:29 PM,73.4,71.6,94,29.89,10.0,SW,8.1,-,N/A,,Overcast,230,2013-08-28 18:29:00
2:42 PM,75.2,71.6,89,29.89,10.0,WSW,6.9,-,N/A,,Overcast,240,2013-08-28 18:42:00
2:54 PM,77.0,70.0,79,29.86,10.0,West,5.8,-,N/A,,Overcast,270,2013-08-28 18:54:00
3:54 PM,78.1,68.0,71,29.86,10.0,Calm,Calm,-,N/A,,Overcast,0,2013-08-28 19:54:00
4:54 PM,77.0,68.0,74,29.85,10.0,SSW,4.6,-,N/A,,Mostly Cloudy,210,2013-08-28 20:54:00
5:54 PM,79.0,69.1,72,29.85,10.0,Calm,Calm,-,N/A,,Mostly Cloudy,0,2013-08-28 21:54:00
6:30 PM,75.2,71.6,89,29.88,10.0,ENE,6.9,-,N/A,,Overcast,70,2013-08-28 22:30:00
6:38 PM,75.2,71.6,89,29.89,10.0,NNE,6.9,-,N/A,,Mostly Cloudy,30,2013-08-28 22:38:00
6:54 PM,75.0,71.1,87,29.86,10.0,NE,4.6,-,N/A,,Scattered Clouds,50,2013-08-28 22:54:00
7:54 PM,73.0,71.1,93,29.88,9.0,ENE,4.6,-,N/A,,Mostly Cloudy,70,2013-08-28 23:54:00
8:54 PM,72.0,71.1,97,29.90,8.0,Calm,Calm,-,N/A,,Mostly Cloudy,0,2013-08-29 00:54:00
9:54 PM,70.0,70.0,100,29.92,8.0,NE,3.5,-,N/A,,Partly Cloudy,40,2013-08-29 01:54:00
10:54 PM,70.0,69.1,97,29.93,9.0,Calm,Calm,-,N/A,,Clear,0,2013-08-29 02:54:00
11:10 PM,68.0,68.0,100,29.95,1.8,Calm,Calm,-,N/A,,Partly Cloudy,0,2013-08-29 03:10:00
11:19 PM,68.0,68.0,100,29.95,1.0,Calm,Calm,-,N/A,,Partly Cloudy,0,2013-08-29 03:19:00
11:27 PM,68.0,68.0,100,29.95,3.0,Calm,Calm,-,N/A,,Clear,0,2013-08-29 03:27:00
11:54 PM,68.0,68.0,100,29.93,6.0,Calm,Calm,-,N/A,,Clear,0,2013-08-29 03:54:00